User: anonymous   Login
Location: Molveno
(46.1500°N, 10.9667°E)
Time: 06:28:55
(UTC+00:00)
Language:

ATLAS 2AS CENTAUR R/B - Orbit

View from above orbital plane
View from above orbital plane
View from above satellite
View from above satellite

Ground track
Ground track

The orbit data is extracted from the following two-line orbital elements,

1 28096U 03054B   20271.82156910 0.00000000  00000-0  00000-0 0    04
2 28096  63.6758 268.5483 0223320 226.1058 133.8942 13.40863965    09
Epoch (UTC): 27 September 2020 19:43:03
Eccentricity: 0.0223320
inclination: 63.6758°
perigee height: 939 km
apogee height: 1273 km
right ascension of ascending node: 268.5483°
argument of perigee: 226.1058°
revolutions per day: 13.40863965
mean anomaly at epoch: 133.8942°
orbit number at epoch: 0

The dashed part of the orbit path shows where the satellite is in the earth's shadow,  

DLR